Probability
0 0 0 1 2 3 2 1 0 0 0 0 0 0 0 0 0 0 0 0 1 2 2 1 0 0 1 3 3 3 2 1 1 1 1 0 0 1 2 5 6 5 4
0 0 0 0 1 2 2 1 0 0 0 0 0 0 0 0 0 0 0 0 0 1 1 0 0 1 1 3 4 4 4 2 1 1 2 2 1 1 2 4 5 5 4
0 0 0 0 1 2 1 0 0 0 0 0 0 0 0 0 0 0 0 0 0 0 0 0 0 1 2 3 4 5 4 3 1 2 3 4 4 3 4 5 4 3 3
0 0 0 0 1 1 1 0 0 0 0 0 0 0 0 0 0 0 0 0 0 0 0 0 0 1 2 3 3 3 3 3 1 1 3 4 6 5 5 5 4 2 2
0 0 0 0 0 0 0 0 0 0 0 0 0 0 0 0 0 0 0 0 0 0 0 0 0 0 1 1 2 2 3 3 2 2 3 6 8 7 6 5 4 3 3
0 0 0 0 0 0 0 0 0 0 0 0 0 0 0 0 0 0 0 0 0 0 0 0 0 0 0 0 0 2 3 4 4 4 6 8 10 9 7 6 5 4 4
0 0 0 0 0 0 0 0 0 0 0 0 0 0 0 0 0 0 0 0 0 0 0 0 0 0 0 0 0 1 2 4 5 6 7 8 8 8 7 6 5 5 4
1 0 0 0 0 0 0 0 0 0 0 0 0 0 0 0 0 0 0 0 0 0 0 0 0 0 0 0 0 0 1 2 4 5 5 5 4 5 4 4 4 3 2
1 0 0 0 0 0 0 0 0 0 0 0 0 0 0 0 0 0 0 0 0 0 0 0 0 0 0 0 0 0 0 1 3 4 4 3 2 3 2 2 2 2 1
1 0 0 0 0 0 0 0 0 0 0 0 0 0 0 0 0 0 0 0 0 0 0 0 0 0 0 0 0 0 0 1 2 3 3 2 1 1 2 1 2 2 1
0 0 0 0 0 0 0 0 0 0 0 0 0 0 0 0 0 0 0 0 0 0 0 0 0 0 0 0 0 0 0 0 1 1 2 2 1 0 1 1 1 1 1
0 0 0 0 0 0 0 0 0 0 0 0 0 0 0 0 0 0 0 0 0 0 0 0 0 0 0 0 0 0 0 0 0 0 0 0 0 0 0 0 0 0 1
0 0 0 0 0 0 0 0 0 0 0 0 0 0 0 0 0 0 0 0 0 0 0 0 0 0 0 0 0 0 0 0 0 0 0 0 0 0 0 0 0 0 0
0 0 0 0 0 0 0 0 0 0 0 0 0 0 0 0 0 0 0 0 0 0 0 0 0 0 0 0 0 0 0 0 0 0 0 0 0 0 0 0 0 0 0
0 0 0 0 0 0 0 0 0 0 0 0 0 0 0 0 0 0 0 0 0 0 0 0 0 0 0 0 0 0 0 0 0 0 0 0 0 0 0 0 0 0 0
0 0 0 0 0 0 0 0 0 0 0 0 0 0 0 0 0 0 0 0 0 0 0 0 0 0 0 0 0 0 0 0 0 0 0 0 0 0 0 0 0 0 0
0 0 0 0 0 0 0 0 0 0 0 0 0 0 0 0 0 0 0 0 0 0 0 0 0 0 0 0 0 0 0 0 0 0 0 0 0 0 0 0 0 0 0
0 0 0 0 0 0 0 0 0 0 0 0 0 0 0 0 0 0 0 0 0 0 0 0 0 0 0 0 0 0 0 0 0 0 0 0 0 0 0 0 0 0 0
0 0 0 0 0 0 0 0 0 0 0 0 0 0 0 0 0 0 0 0 0 0 0 0 0 0 0 0 0 0 0 0 0 0 0 0 0 0 0 0 0 0 0
0 0 0 0 0 0 0 0 0 0 0 0 0 0 0 0 0 0 0 0 0 0 0 0 0 0 0 0 0 0 0 0 0 0 0 0 0 0 0 0 0 0 0
0 0 0 0 0 0 0 0 0 0 0 0 0 0 0 0 0 0 0 0 0 0 0 0 0 0 0 0 0 0 0 0 0 0 0 0 0 0 0 0 0 0 0
0 0 0 0 0 0 0 0 0 0 0 0 0 0 0 0 0 0 0 0 0 0 0 0 0 0 0 0 0 0 0 0 0 0 0 0 0 0 0 0 0 0 0
0 0 0 0 0 0 0 0 0 0 0 0 0 0 0 0 0 0 0 0 0 0 0 0 0 0 0 0 0 0 0 0 0 0 0 0 0 0 0 0 0 0 0
0 0 0 0 0 0 0 0 0 0 0 0 0 0 0 0 0 0 0 0 0 0 0 0 0 0 0 0 0 0 0 0 0 0 0 0 0 0 0 0 0 0 0
0 0 0 0 0 0 0 0 0 0 0 0 0 0 0 0 0 0 0 0 0 0 0 0 0 0 0 0 0 0 0 0 0 0 0 0 0 0 0 0 0 0 0
0 0 0 0 0 0 0 0 0 0 0 0 0 0 0 0 0 0 0 0 0 0 0 0 0 0 0 0 0 0 0 0 0 0 0 0 0 0 0 0 0 0 0
Wind_Speed
2 2 2 2 2 2 2 2 2 3 3 3 2 2 2 2 2 2 2 5 5 6 6 6 6 6 5 5 4 3 4 4 4 4 5 6 7 8 9 10 11 11 11
2 2 2 2 2 2 2 2 2 2 2 2 3 3 2 2 2 2 2 3 6 6 6 6 6 6 6 6 6 5 4 3 4 5 6 6 7 8 9 9 9 9 10
3 2 2 2 2 2 2 2 2 2 2 2 3 3 2 2 2 2 2 2 3 6 7 7 7 7 7 7 7 7 6 5 5 5 5 5 6 6 7 8 9 8 9
3 2 2 2 2 2 2 2 2 2 2 3 3 3 2 2 3 2 3 3 3 3 5 9 9 10 10 9 9 8 8 7 6 6 6 5 5 5 6 7 7 7 8
3 2 2 2 2 2 2 3 2 2 2 3 2 2 2 2 2 3 3 4 4 4 3 6 9 11 11 11 11 10 9 8 8 7 7 7 6 5 5 6 6 7 7
3 2 2 3 3 2 2 3 2 2 1 2 2 2 2 2 2 3 3 3 4 5 5 5 5 7 11 11 12 12 11 10 9 9 8 8 8 7 7 6 6 6 7
3 2 2 3 3 2 2 2 2 2 2 3 2 2 2 2 3 3 3 3 4 5 5 6 5 4 5 11 13 13 13 13 11 10 9 9 8 8 8 8 7 6 6
3 2 2 2 2 2 2 3 2 1 2 3 2 1 2 2 2 3 3 3 4 4 5 6 6 6 5 4 9 14 14 13 13 12 11 10 9 9 9 9 7 6 7
2 2 2 1 2 1 1 2 2 1 1 1 2 1 0 2 2 2 3 3 4 4 4 4 6 6 6 5 5 11 15 14 13 13 12 11 10 10 9 9 10 8 7
1 1 1 2 2 1 2 2 1 1 0 1 1 1 0 1 1 2 2 2 3 4 4 4 4 5 5 4 7 12 14 14 14 13 13 12 11 11 10 10 9 10 9
2 1 1 1 1 1 1 1 1 1 0 0 0 1 1 1 0 1 2 2 2 2 3 3 3 3 4 5 4 10 14 14 14 13 13 12 12 12 11 11 11 11 11
1 1 1 1 1 1 1 1 1 1 0 0 0 0 0 0 0 0 2 2 2 1 1 2 2 3 3 4 7 12 13 14 14 13 13 12 13 12 12 11 11 11 11
1 2 1 1 1 1 1 1 0 1 1 0 0 0 0 1 1 1 1 2 2 2 1 1 1 2 3 3 5 11 11 13 13 12 12 12 13 12 13 12 11 11 12
2 2 1 1 1 1 1 0 0 0 0 0 0 0 0 1 1 1 1 1 2 2 1 1 1 2 2 3 6 10 6 12 12 12 11 12 12 12 12 12 13 12 12
2 2 2 2 2 1 1 1 1 0 0 0 1 1 1 1 1 1 1 1 2 2 2 1 1 1 2 2 6 5 5 9 11 10 10 10 11 11 11 11 12 11 11
2 2 2 2 2 2 2 2 1 1 1 1 1 1 1 1 1 1 1 1 1 2 3 2 1 1 2 3 7 5 5 10 10 10 9 9 10 10 10 10 11 11 11
3 3 3 3 3 3 3 2 3 2 2 2 2 2 2 1 1 1 1 1 1 2 3 2 1 1 2 3 4 4 3 3 5 10 9 9 9 9 10 10 10 11 11
3 3 3 3 3 3 3 4 4 3 3 3 3 2 3 2 2 1 1 1 2 2 3 4 2 2 2 2 3 4 4 4 3 8 8 9 10 9 9 9 9 10 11
3 3 3 4 4 4 4 4 4 4 4 4 4 4 4 3 3 2 2 2 2 2 2 2 3 2 2 2 3 3 3 3 4 6 7 8 10 9 9 9 9 10 10
3 3 4 4 4 4 4 4 4 5 5 4 4 4 4 4 5 4 3 3 2 2 2 2 3 2 2 2 1 3 4 3 4 4 5 7 8 9 9 9 9 9 9
4 4 4 4 4 4 4 5 5 5 5 4 4 5 5 6 8 6 4 3 3 2 2 2 3 2 2 2 2 2 3 4 3 2 3 4 4 3 4 7 9 9 9
3 3 4 4 4 4 7 9 7 5 5 5 5 5 5 6 7 9 9 8 6 4 4 3 3 4 4 3 2 2 2 3 4 2 3 5 3 3 3 3 8 10 9
3 4 4 4 5 7 9 10 10 5 5 5 5 5 4 5 6 4 6 8 7 9 8 5 5 5 4 4 3 3 3 3 4 3 2 4 2 4 3 5 11 10 9
3 4 4 5 5 7 10 10 10 5 4 5 5 5 5 5 5 5 4 4 5 5 6 5 5 6 5 4 4 4 4 4 4 3 2 3 3 4 4 4 9 8 8
4 4 4 4 5 7 9 10 9 3 4 5 5 5 6 6 9 10 6 5 6 5 7 9 10 9 9 9 6 2 2 3 4 2 1 2 2 4 4 3 4 7 9
4 4 4 4 5 6 9 10 9 3 4 4 4 5 10 9 11 11 6 6 7 6 4 4 5 7 5 6 7 4 3 3 3 3 1 1 2 3 5 3 2 3 5
Wind_Direction
43 25 11 12 7 2 359 350 347 344 344 344 346 344 333 328 331 336 332 349 354 359 357 352 347 339 333 330 320 304 288 274 272 276 273 267 265 264 261 258 255 252 249
53 34 17 9 3 355 346 341 337 335 331 340 345 343 332 332 344 346 341 347 360 4 4 358 353 348 350 348 342 337 331 312 291 285 282 276 271 270 268 265 263 260 255
52 43 26 8 349 345 352 356 354 351 358 357 347 342 348 355 5 3 359 360 1 10 16 17 16 11 2 356 350 349 351 349 337 315 301 292 282 276 278 276 269 265 263
49 49 34 6 346 359 10 9 6 359 0 357 346 341 350 0 9 13 19 18 17 16 16 26 26 23 18 11 7 4 2 1 358 351 334 322 307 295 294 292 285 283 278
43 49 36 6 355 16 19 12 15 6 353 349 341 342 353 4 4 23 30 27 26 27 20 26 30 28 24 19 14 9 3 4 3 0 359 355 339 317 305 300 299 292 288
38 40 35 15 10 25 20 14 8 7 350 337 342 356 353 4 24 35 32 30 32 34 32 30 24 21 25 24 19 13 8 2 0 358 352 347 345 332 307 299 298 294 290
30 41 28 16 19 25 15 6 3 10 7 353 4 355 356 25 49 41 40 43 38 33 36 34 30 25 18 21 20 17 12 6 1 357 351 344 338 336 333 311 303 299 297
15 26 29 20 18 14 20 18 25 17 6 16 16 358 340 342 26 35 38 49 41 34 40 38 35 31 24 15 15 17 12 6 1 0 358 354 351 344 338 339 317 306 302
10 17 14 21 15 22 8 4 19 50 4 354 21 52 30 286 323 354 32 42 37 38 32 35 37 29 27 18 5 11 11 6 1 356 355 358 360 355 353 350 350 333 318
349 357 9 16 14 13 4 347 31 24 56 334 345 11 194 212 275 317 338 16 29 38 31 31 26 22 22 15 12 11 10 6 3 1 359 359 1 -0 360 357 357 357 350
332 338 356 7 11 14 359 1 19 27 73 225 293 324 358 8 191 216 284 318 351 20 27 22 18 15 16 13 4 11 11 7 4 2 1 5 5 5 6 5 4 1 358
304 316 323 336 342 356 341 333 8 33 35 95 243 231 220 268 276 227 258 287 304 308 5 20 20 12 14 9 7 13 11 8 5 3 3 4 7 9 7 8 8 4 2
276 283 284 274 273 274 299 332 33 20 33 73 14 276 253 243 251 230 240 277 293 291 294 5 14 18 17 8 357 8 6 4 4 1 5 12 15 13 11 8 8 9 8
251 266 261 254 252 249 244 191 180 211 91 59 342 299 273 283 270 220 210 224 293 293 277 284 329 12 5 0 359 5 357 0 2 3 7 11 11 9 9 7 8 7 6
245 244 244 247 251 240 223 201 219 239 149 230 256 262 260 278 284 256 223 196 209 270 281 287 311 337 346 353 359 355 348 354 359 1 3 7 6 5 5 4 4 2 2
244 239 239 235 237 233 221 205 216 215 196 233 234 246 261 270 291 279 244 232 207 215 256 269 264 301 331 345 352 352 342 352 353 354 355 359 358 358 360 359 359 358 356
242 237 236 233 232 229 216 208 221 212 214 232 232 229 249 249 252 262 246 231 226 207 244 272 263 298 314 324 330 332 332 337 333 346 347 351 351 351 353 353 353 354 351
243 236 235 234 236 232 218 212 224 220 217 226 229 225 243 236 240 243 228 230 233 221 221 263 281 298 296 301 311 318 328 334 322 332 337 342 344 343 344 345 346 346 345
247 242 233 236 237 232 223 220 218 220 221 224 221 219 230 222 237 237 231 232 238 239 220 243 276 281 287 298 315 310 310 313 319 325 328 333 334 336 337 338 339 341 342
245 242 236 236 236 233 228 224 218 219 224 227 224 222 223 218 227 229 232 230 225 229 227 242 265 273 272 283 298 305 314 317 315 319 321 323 326 330 329 329 332 333 335
249 244 243 245 238 233 229 222 219 220 221 228 231 229 227 227 230 229 229 222 212 217 226 241 259 271 272 276 279 285 300 310 297 295 309 309 312 308 313 316 321 321 324
260 250 245 244 243 242 247 242 228 218 218 221 231 235 236 242 244 248 250 242 223 216 224 232 248 254 260 247 250 267 291 316 308 309 319 301 296 290 290 288 307 314 316
258 257 253 246 248 250 255 253 244 223 217 224 228 231 238 235 241 238 256 261 258 253 244 229 237 245 247 234 227 250 253 260 267 285 308 290 291 284 284 298 307 305 309
254 255 257 252 254 258 260 258 252 236 222 228 227 225 230 239 233 227 226 240 247 253 253 245 232 240 240 231 221 235 249 268 267 258 229 274 292 284 292 294 301 300 310
263 257 259 253 252 261 262 259 253 231 230 236 232 226 227 233 243 243 232 237 249 255 259 253 248 252 256 257 245 234 257 282 290 277 209 255 291 300 292 277 290 304 308
259 265 266 256 251 256 261 256 250 225 233 242 240 235 238 238 246 248 232 228 245 251 242 255 259 265 268 268 261 237 224 244 266 278 226 239 282 323 310 285 266 287 300